1487052001.23,8951,10.25,74320.8,-7.37,-33.03,-33.31,0,*67
1487052002.43,8952,10.25,74320.5,-7.37,-33.15,-33.37,0,*65
1487052003.66,8953,10.25,74318.8,-7.37,-32.97,-33.15,0,*6F
1487052004.86,8954,10.25,74318.0,-7.37,-33.15,-33.15,0,*63
1487052006.06,8955,10.25,74320.8,-7.37,-33.03,-33.15,0,*65
1487052007.26,8956,10.25,74320.0,-7.37,-33.03,-33.21,0,*61
1487052008.52,8957,10.25,74320.5,-7.35,-33.03,-33.31,0,*63
1487052009.78,8958,10.25,74322.3,-7.35,-33.03,-33.31,0,*6C
1487052011.01,8959,10.25,74322.5,-7.35,-33.03,-33.37,0,*6B
1487052012.24,8960,10.25,74320.5,-7.35,-33.21,-33.55,0,*65
1487052013.49,8961,10.25,74320.3,-7.35,-33.15,-33.49,0,*6E
1487052014.72,8962,10.25,74322.3,-7.35,-33.15,-33.37,0,*64
1487052015.96,8963,10.25,74322.3,-7.35,-33.15,-33.37,0,*65
1487052017.19,8964,10.25,74320.3,-7.35,-33.15,-33.37,0,*62
1487052018.44,8965,10.25,74306.8,-7.35,-33.15,-33.49,0,*6A
1487052019.69,8966,10.25,74306.0,-7.35,-33.21,-33.49,0,*6E
1487052020.95,8967,10.25,74314.5,-7.35,-33.21,-33.49,0,*6F
1487052022.2,8968,10.25,74310.3,-7.35,-33.15,-33.31,0,*68
1487052023.46,8969,10.25,74306.8,-7.35,-33.15,-33.31,0,*69
1487052024.71,8970,10.25,74310.5,-7.35,-33.15,-33.31,0,*61
1487052025.96,8971,10.25,74308.0,-7.35,-32.97,-33.15,0,*6D
1487052027.22,8972,10.25,74306.5,-7.33,-32.75,-32.97,0,*6F
1487052028.48,8973,10.25,74310.3,-7.35,-33.03,-33.31,0,*65
1487052029.73,8974,10.25,74312.8,-7.33,-32.97,-33.27,0,*6F
1487052030.99,8975,10.25,74312.0,-7.33,-33.09,-33.27,0,*68
1487052032.22,8976,10.25,74316.5,-7.33,-32.91,-33.09,0,*67
1487052033.48,8977,10.25,74316.0,-7.33,-32.85,-33.09,0,*63
1487052034.75,8978,10.25,74314.5,-7.31,-32.85,-33.09,0,*6E
1487052036.03,8979,10.25,74316.3,-7.31,-32.85,-33.09,0,*6F
1487052037.31,8980,10.25,74318.5,-7.31,-32.75,-32.97,0,*60
1487052038.56,8981,10.25,74316.5,-7.31,-32.97,-33.15,0,*66
1487052039.81,8982,10.25,74312.5,-7.31,-32.97,-33.15,0,*65
1487052041.06,8983,10.25,74316.3,-7.31,-32.97,-33.15,0,*64
1487052042.33,8984,10.25,74314.3,-7.31,-32.97,-33.09,0,*6E
1487052043.58,8985,10.25,74316.3,-7.31,-32.97,-33.15,0,*62
1487052044.86,8986,10.25,74316.0,-7.31,-32.85,-33.09,0,*6F
1487052046.08,8987,10.25,74314.8,-7.29,-32.91,-33.09,0,*62
1487052047.33,8988,10.25,74314.3,-7.29,-32.85,-33.09,0,*68
1487052048.52,8989,10.25,74316.0,-7.29,-32.91,-33.21,0,*66
1487052049.81,8990,10.25,74316.8,-7.31,-33.09,-33.27,0,*61
1487052051.03,8991,10.25,74322.0,-7.29,-33.09,-33.37,0,*68
1487052052.29,8992,10.25,74322.3,-7.29,-33.09,-33.27,0,*6A
1487052053.49,8993,10.25,74320.3,-7.29,-33.03,-33.37,0,*60
1487052054.74,8994,10.25,74314.0,-7.29,-33.09,-33.43,0,*6E
1487052055.99,8995,10.25,74314.5,-7.29,-33.27,-33.43,0,*63
1487052057.19,8996,10.25,74312.0,-7.29,-33.21,-33.55,0,*61
1487052058.44,8997,10.25,74316.0,-7.31,-33.15,-33.43,0,*69
1487052059.7,8998,10.25,74312.0,-7.27,-33.03,-33.31,0,*63
1487052060.95,8999,10.25,74312.8,-7.29,-33.09,-33.43,0,*63
1487052062.23,9000,10.25,74314.0,-7.31,-33.27,-33.43,0,*6E
1487052063.46,9001,10.25,74312.3,-7.29,-33.09,-33.37,0,*69
1487052064.71,9002,10.25,74312.0,-7.29,-33.09,-33.27,0,*6B
1487052065.94,9003,10.25,74312.8,-7.29,-33.09,-33.37,0,*6B
1487052067.17,9004,10.25,74314.5,-7.29,-33.03,-33.27,0,*67
1487052068.41,9005,10.25,74312.3,-7.27,-32.97,-33.21,0,*62
1487052069.67,9006,10.25,74316.8,-7.27,-32.85,-33.03,0,*62
1487052070.9,9007,10.25,74314.5,-7.27,-33.03,-33.21,0,*6C
1487052072.15,9008,10.25,74312.0,-7.27,-32.97,-33.15,0,*68
1487052073.38,9009,10.25,74314.0,-7.25,-32.85,-33.15,0,*68
1487052074.6,9010,10.25,74316.0,-7.25,-32.85,-33.15,0,*60
1487052075.85,9011,10.25,74310.8,-7.27,-32.97,-33.21,0,*67
1487052077.06,9012,10.25,74310.3,-7.25,-33.03,-33.21,0,*6A
1487052078.28,9013,10.25,74308.5,-7.25,-32.97,-33.21,0,*67
1487052079.53,9014,10.25,74314.3,-7.27,-32.97,-33.21,0,*62
1487052080.76,9015,10.25,74314.8,-7.27,-33.03,-33.21,0,*6F
1487052082.01,9016,10.25,74310.8,-7.27,-33.03,-33.31,0,*6D
1487052083.25,9017,10.25,74306.5,-7.27,-33.21,-33.37,0,*6A
1487052084.48,9018,10.25,74314.0,-7.27,-33.21,-33.37,0,*65
1487052085.68,9019,10.25,74312.8,-7.25,-33.03,-33.37,0,*66
1487052086.91,9020,10.25,74314.3,-7.27,-33.03,-33.37,0,*6E
1487052088.15,9021,10.25,74316.0,-7.25,-33.21,-33.31,0,*6B
1487052089.38,9022,10.25,74316.8,-7.27,-33.21,-33.37,0,*6C
1487052090.6,9023,10.25,74318.0,-7.25,-33.15,-33.31,0,*6E
1487052091.81,9024,10.25,74314.8,-7.25,-33.03,-33.21,0,*6F
1487052093.01,9025,10.25,74316.3,-7.25,-33.03,-33.21,0,*6E
1487052094.24,9026,10.25,74314.3,-7.25,-32.97,-33.21,0,*61
1487052095.46,9027,10.25,74304.5,-7.25,-32.97,-33.21,0,*60
1487052096.66,9028,10.25,74296.8,-7.25,-33.15,-33.37,0,*63
1487052097.87,9029,10.25,74294.8,-7.25,-33.21,-33.37,0,*65
1487052099.07,9030,10.25,74310.3,-7.25,-33.15,-33.37,0,*6A
1487052100.27,9031,10.25,74316.5,-7.23,-32.91,-33.15,0,*60
1487052101.53,9032,10.25,74312.0,-7.23,-32.97,-33.27,0,*64
1487052102.72,9033,10.25,74312.8,-7.23,-32.91,-33.15,0,*62
1487052104.0,9034,10.25,74308.5,-7.21,-32.97,-33.27,0,*60
1487052105.26,9035,10.25,74304.5,-7.23,-32.97,-33.27,0,*63
1487052106.51,9036,10.25,74310.0,-7.23,-32.97,-33.27,0,*60
1487052107.74,9037,10.25,74310.5,-7.23,-32.91,-33.27,0,*67
1487052109.01,9038,10.25,74310.8,-7.21,-32.97,-33.31,0,*6B
1487052110.27,9039,10.25,74304.5,-7.23,-33.09,-33.27,0,*69
1487052111.5,9040,10.25,74310.8,-7.23,-32.91,-33.27,0,*67
1487052112.78,9041,10.25,74310.3,-7.21,-33.09,-33.43,0,*66
1487052114.03,9042,10.25,74314.3,-7.23,-32.97,-33.31,0,*64
1487052115.31,9043,10.25,74318.0,-7.21,-33.09,-33.31,0,*61
1487052116.56,9044,10.25,74316.0,-7.21,-33.15,-33.31,0,*6B
1487052117.81,9045,10.25,74318.0,-7.21,-33.15,-33.43,0,*6F
1487052119.07,9046,10.25,74316.0,-7.23,-33.09,-33.31,0,*66
1487052120.32,9047,10.25,74314.8,-7.21,-33.15,-33.31,0,*68
1487052121.54,9048,10.25,74316.5,-7.23,-33.15,-33.31,0,*65
1487052122.79,9049,10.25,74314.5,-7.23,-32.97,-33.31,0,*6F
1487052124.02,9050,10.25,74314.8,-7.23,-33.15,-33.31,0,*6C
1487052125.24,9051,10.25,74316.8,-7.23,-33.15,-33.31,0,*6D
1487052126.52,9052,10.25,74316.5,-7.21,-33.09,-33.31,0,*61
1487052127.8,9053,10.25,74316.3,-7.21,-33.09,-33.27,0,*67
1487052129.08,9054,10.25,74320.3,-7.21,-32.97,-33.27,0,*66
1487052130.34,9055,10.25,74322.3,-7.23,-33.09,-33.27,0,*63
1487052131.56,9056,10.25,74318.3,-7.23,-33.15,-33.31,0,*6A
1487052132.82,9057,10.25,74316.3,-7.23,-33.09,-33.31,0,*66
1487052134.07,9058,10.25,74320.8,-7.23,-33.09,-33.31,0,*69
1487052135.35,9059,10.25,74316.5,-7.21,-32.97,-33.27,0,*6B
1487052136.57,9060,10.25,74316.8,-7.23,-32.97,-33.15,0,*62
1487052137.8,9061,10.25,74322.5,-7.21,-32.91,-33.15,0,*67
1487052139.02,9062,10.25,74322.0,-7.17,-32.91,-33.03,0,*66
1487052140.25,9063,10.25,74316.8,-7.17,-32.91,-33.03,0,*67
1487052141.53,9064,10.25,74314.3,-7.17,-33.09,-33.27,0,*66
1487052142.76,9065,10.25,74316.5,-7.15,-32.91,-33.27,0,*65
1487052144.02,9066,10.25,74318.0,-7.17,-32.85,-33.03,0,*67
1487052145.27,9067,10.25,74318.0,-7.17,-32.85,-33.03,0,*66
1487052146.53,9068,10.25,74312.5,-7.17,-32.85,-33.03,0,*69
1487052147.78,9069,10.25,74322.5,-7.17,-32.85,-33.03,0,*68
1487052149.03,9070,10.25,74318.8,-7.17,-32.91,-33.09,0,*6F
1487052150.29,9071,10.25,74320.3,-7.17,-32.75,-32.91,0,*64
1487052151.53,9072,10.25,74318.8,-7.15,-32.75,-32.91,0,*65
1487052152.72,9073,10.25,74318.8,-7.15,-32.91,-33.21,0,*64
1487052154.01,9074,10.31,74316.3,-7.17,-33.09,-33.27,0,*67
1487052155.27,9075,10.25,74314.5,-7.17,-33.03,-33.27,0,*6C
1487052156.49,9076,10.25,74316.0,-7.17,-33.03,-33.21,0,*69
1487052157.72,9077,10.25,74318.8,-7.17,-32.91,-33.21,0,*62
1487052158.97,9078,10.25,74320.5,-7.17,-32.91,-33.27,0,*6B
1487052160.21,9079,10.25,74320.8,-7.15,-33.03,-33.27,0,*62
1487052161.44,9080,10.25,74322.0,-7.15,-33.03,-33.27,0,*64
1487052162.67,9081,10.25,74320.5,-7.15,-33.03,-33.27,0,*65
1487052163.9,9082,10.25,74320.5,-7.15,-33.09,-33.37,0,*6D
1487052165.1,9083,10.25,74322.5,-7.15,-33.21,-33.37,0,*66
1487052166.31,9084,10.25,74320.8,-7.15,-33.03,-33.21,0,*66
1487052167.56,9085,10.25,74320.8,-7.17,-33.03,-33.27,0,*63
1487052168.79,9086,10.25,74320.0,-7.15,-32.91,-33.27,0,*68
1487052170.02,9087,10.25,74322.5,-7.15,-33.03,-33.27,0,*63
1487052171.28,9088,10.25,74326.3,-7.15,-33.09,-33.27,0,*66
1487052172.51,9089,10.25,74324.8,-7.15,-33.03,-33.27,0,*6D
1487052173.74,9090,10.25,74322.0,-7.15,-33.09,-33.21,0,*69
1487052175.0,9091,10.25,74318.8,-7.15,-33.09,-33.27,0,*6E
1487052176.22,9092,10.25,74322.0,-7.13,-33.03,-33.21,0,*67
1487052177.44,9093,10.25,74318.8,-7.13,-33.03,-33.21,0,*66
1487052178.69,9094,10.25,74322.3,-7.13,-33.03,-33.31,0,*60
1487052179.93,9095,10.25,74324.8,-7.13,-32.97,-33.21,0,*6C
1487052181.18,9096,10.25,74320.3,-7.13,-32.97,-33.21,0,*6F
1487052182.4,9097,10.25,74320.5,-7.11,-33.15,-33.31,0,*66
1487052183.63,9098,10.25,74320.0,-7.15,-33.03,-33.27,0,*6D
1487052184.83,9099,10.25,74322.0,-7.15,-33.03,-33.21,0,*6A
1487052186.03,9100,10.25,74322.5,-7.15,-33.03,-33.21,0,*6B
1487052187.26,9101,10.25,74322.0,-7.15,-32.91,-33.27,0,*66
1487052188.51,9102,10.25,74322.0,-7.13,-32.97,-33.15,0,*64
1487052189.73,9103,10.25,74322.8,-7.11,-32.97,-33.21,0,*60
1487052190.98,9104,10.25,74326.3,-7.13,-33.03,-33.31,0,*68
1487052192.23,9105,10.25,74326.0,-7.13,-33.03,-33.31,0,*69
1487052193.47,9106,10.25,74322.0,-7.13,-33.03,-33.31,0,*6A
1487052194.7,9107,10.25,74318.8,-7.11,-33.03,-33.31,0,*69
1487052195.92,9108,10.25,74320.3,-7.11,-32.97,-33.21,0,*6B
1487052197.16,9109,10.25,74324.5,-7.13,-32.97,-33.15,0,*6F
1487052198.41,9110,10.25,74324.0,-7.13,-32.97,-33.21,0,*60
1487052199.63,9111,10.25,74322.8,-7.13,-33.03,-33.21,0,*6D
1487052200.88,9112,10.25,74322.3,-7.11,-32.97,-33.31,0,*61
1487052202.15,9113,10.31,74330.8,-7.13,-32.97,-33.31,0,*62
1487052203.4,9114,10.25,74326.8,-7.13,-33.03,-33.31,0,*69
1487052204.64,9115,10.25,74324.3,-7.13,-33.15,-33.31,0,*6F
1487052205.87,9116,10.25,74318.5,-7.11,-33.03,-33.31,0,*69
1487052207.09,9117,10.25,74326.8,-7.11,-33.15,-33.31,0,*6F
1487052208.32,9118,10.25,74324.3,-7.11,-33.03,-33.31,0,*67
1487052209.54,9119,10.25,74322.0,-7.11,-32.97,-33.37,0,*6C
1487052210.79,9120,10.25,74322.0,-7.11,-32.97,-33.31,0,*60
1487052212.02,9121,10.25,74320.3,-7.11,-33.03,-33.31,0,*6D
1487052213.24,9122,10.25,74324.0,-7.11,-33.03,-33.31,0,*6E
1487052214.49,9123,10.25,74326.5,-7.13,-32.97,-33.21,0,*60
1487052215.71,9124,10.25,74324.0,-7.09,-32.91,-33.15,0,*6D
1487052216.93,9125,10.25,74328.0,-7.09,-32.91,-33.15,0,*6C
1487052218.15,9126,10.25,74326.3,-7.11,-32.97,-33.21,0,*67
1487052219.37,9127,10.25,74326.5,-7.11,-32.97,-33.21,0,*66
1487052220.59,9128,10.25,74328.8,-7.11,-32.97,-33.15,0,*6E
1487052221.82,9129,10.25,74330.8,-7.11,-32.85,-33.21,0,*6B
1487052223.05,9130,10.31,74330.5,-7.11,-32.85,-33.15,0,*64
1487052224.27,9131,10.25,74326.0,-7.09,-32.91,-33.15,0,*69
1487052225.51,9132,10.25,74324.0,-7.09,-32.91,-33.09,0,*67
1487052226.77,9133,10.25,74326.5,-7.09,-32.79,-33.15,0,*6D
1487052227.99,9134,10.25,74326.8,-7.09,-32.91,-33.15,0,*6C
1487052229.21,9135,10.25,74328.3,-7.09,-32.91,-33.15,0,*6D
1487052230.46,9136,10.25,74322.3,-7.09,-32.97,-33.15,0,*68
1487052231.68,9137,10.31,74330.3,-7.09,-32.91,-33.15,0,*6F
1487052232.92,9138,10.25,74330.8,-7.09,-32.97,-33.15,0,*66
1487052234.15,9139,10.31,74328.5,-7.07,-32.97,-33.15,0,*69
1487052235.39,9140,10.25,74330.8,-7.09,-32.91,-33.09,0,*62
1487052236.67,9141,10.25,74328.5,-7.09,-32.97,-33.27,0,*69
1487052237.93,9142,10.25,74326.0,-7.07,-33.09,-33.31,0,*65
1487052239.18,9143,10.25,74324.3,-7.09,-32.91,-33.27,0,*6D
1487052240.4,9144,10.31,74332.0,-7.07,-32.91,-33.31,0,*63
1487052241.6,9145,10.25,74330.8,-7.07,-32.91,-33.15,0,*64
1487052242.83,9146,10.25,74330.3,-7.07,-32.91,-33.27,0,*66
1487052244.08,9147,10.25,74324.0,-7.07,-32.97,-33.27,0,*61
1487052245.31,9148,10.25,74328.0,-7.07,-32.91,-33.27,0,*68
1487052246.53,9149,10.25,74328.0,-7.09,-32.91,-33.15,0,*66
1487052247.78,9150,10.31,74330.5,-7.09,-32.91,-33.27,0,*6F
1487052248.98,9151,10.25,74326.8,-7.07,-32.91,-33.15,0,*61
1487052250.23,9152,10.25,74328.0,-7.07,-32.79,-33.09,0,*69
1487052251.51,9153,10.31,74328.3,-7.05,-32.85,-33.09,0,*69
1487052252.74,9154,10.25,74326.5,-7.07,-32.91,-33.27,0,*65
1487052253.99,9155,10.25,74330.5,-7.07,-32.97,-33.27,0,*62
1487052255.25,9156,10.25,74326.3,-7.07,-32.97,-33.27,0,*61
1487052256.5,9157,10.25,74324.5,-7.07,-32.97,-33.27,0,*60
1487052257.75,9158,10.25,74326.5,-7.05,-32.85,-33.21,0,*68
1487052259.0,9159,10.25,74326.0,-7.05,-32.91,-33.09,0,*66
1487052260.28,9160,10.25,74328.5,-7.05,-32.85,-33.09,0,*69
1487052261.56,9161,10.25,74328.5,-7.05,-32.85,-33.09,0,*68
1487052262.83,9162,10.25,74330.8,-7.05,-32.85,-33.09,0,*6B
1487052264.11,9163,10.25,74326.8,-7.05,-32.85,-33.09,0,*6A
1487052265.36,9164,10.25,74328.5,-7.05,-32.91,-33.09,0,*68
1487052266.58,9165,10.25,74330.3,-7.05,-32.91,-33.21,0,*63
1487052267.8,9166,10.25,74326.5,-7.05,-33.03,-33.21,0,*6A
1487052269.06,9167,10.25,74328.8,-7.05,-33.03,-33.27,0,*6D
1487052270.29,9168,10.31,74334.3,-7.03,-33.03,-33.09,0,*68
1487052271.53,9169,10.25,74328.3,-7.05,-32.91,-33.09,0,*65
1487052272.75,9170,10.25,74330.5,-7.05,-32.91,-33.21,0,*67
1487052273.98,9171,10.31,74334.0,-7.05,-32.91,-33.21,0,*66
1487052275.2,9172,10.25,74328.8,-7.03,-32.91,-33.09,0,*69
1487052276.4,9173,10.25,74332.3,-7.03,-33.03,-33.21,0,*68
1487052277.63,9174,10.25,74328.3,-7.05,-33.03,-33.21,0,*69
1487052278.85,9175,10.31,74334.8,-7.05,-32.91,-33.21,0,*62
1487052280.05,9176,10.25,74330.8,-7.03,-32.91,-33.21,0,*67
1487052281.25,9177,10.25,74330.3,-7.03,-33.03,-33.21,0,*6C
1487052282.45,9178,10.31,74332.0,-7.03,-33.03,-33.21,0,*63
1487052283.65,9179,10.25,74326.0,-7.03,-32.91,-33.21,0,*68
1487052284.88,9180,10.25,74328.5,-7.03,-33.09,-33.21,0,*6E
1487052286.08,9181,10.25,74330.8,-7.03,-32.91,-33.21,0,*6F
1487052287.28,9182,10.31,74330.3,-7.03,-32.91,-33.21,0,*6C
1487052288.5,9183,10.25,74330.0,-7.03,-32.91,-33.27,0,*6B
1487052289.73,9184,10.25,74328.5,-7.03,-32.85,-33.21,0,*6F
1487052290.98,9185,10.25,74330.3,-7.01,-32.97,-33.15,0,*68
1487052292.23,9186,10.25,74326.8,-7.01,-32.97,-33.15,0,*6B
1487052293.48,9187,10.25,74324.5,-7.01,-32.97,-33.15,0,*6A
1487052294.7,9188,10.25,74328.8,-6.99,-32.97,-33.15,0,*65
1487052295.93,9189,10.25,74330.8,-6.99,-32.79,-33.15,0,*64
1487052297.18,9190,10.25,74330.5,-7.01,-32.85,-33.15,0,*6F
1487052298.4,9191,10.25,74328.8,-7.01,-33.03,-33.15,0,*61
1487052299.65,9192,10.25,74328.0,-7.01,-32.97,-33.15,0,*6E
1487052300.88,9193,10.25,74328.8,-6.99,-32.85,-33.15,0,*6C
1487052302.1,9194,10.25,74322.8,-6.99,-32.85,-33.21,0,*6C
1487052303.33,9195,10.25,74324.3,-6.99,-32.97,-33.21,0,*6E
1487052304.55,9196,10.25,74328.3,-6.99,-32.97,-33.15,0,*6A
1487052305.75,9197,10.25,74330.5,-6.99,-33.03,-33.15,0,*67
1487052306.95,9198,10.25,74328.0,-6.99,-33.03,-33.15,0,*68
1487052308.15,9199,10.25,74328.5,-6.99,-33.03,-33.15,0,*69
1487052309.35,9200,10.25,74326.5,-6.99,-33.03,-33.21,0,*6D
1487052310.58,9201,10.25,74326.8,-6.99,-32.97,-33.21,0,*60
1487052311.78,9202,10.25,74326.8,-6.99,-33.03,-33.21,0,*6F
1487052312.98,9203,10.25,74330.8,-6.99,-33.03,-33.21,0,*6E
1487052314.23,9204,10.25,74328.3,-6.95,-32.97,-33.09,0,*63
1487052315.43,9205,10.31,74330.8,-6.95,-32.91,-33.15,0,*69
1487052316.68,9206,10.25,74328.8,-6.93,-32.97,-33.15,0,*6A
1487052317.93,9207,10.25,74330.8,-6.93,-32.97,-33.15,0,*6B
1487052319.18,9208,10.25,74326.8,-6.95,-32.97,-33.27,0,*63
1487052320.43,9209,10.25,74328.5,-6.95,-32.97,-33.27,0,*62
1487052321.68,9210,10.31,74332.3,-6.93,-32.97,-33.15,0,*6D
1487052322.93,9211,10.31,74334.0,-6.93,-32.97,-33.15,0,*6C
1487052324.16,9212,10.25,74328.5,-6.95,-32.97,-33.15,0,*69
1487052325.43,9213,10.25,74330.3,-6.93,-32.97,-33.31,0,*68
1487052326.72,9214,10.31,74328.5,-6.93,-33.09,-33.27,0,*6E
1487052328.0,9215,10.25,74328.3,-6.93,-33.09,-33.27,0,*6F
1487052329.25,9216,10.31,74326.5,-6.93,-33.09,-33.15,0,*6D
1487052330.51,9217,10.25,74324.5,-6.93,-33.15,-33.27,0,*60
1487052331.79,9218,10.25,74328.3,-6.93,-33.09,-33.43,0,*60
1487052333.04,9219,10.25,74326.8,-6.93,-33.15,-33.31,0,*69
1487052334.29,9220,10.31,74328.8,-6.95,-33.27,-33.49,0,*6B
1487052335.57,9221,10.31,74326.0,-6.93,-33.27,-33.49,0,*6C
1487052336.85,9222,10.25,74328.0,-6.93,-33.31,-33.43,0,*62
1487052338.11,9223,10.31,74330.0,-6.95,-33.31,-33.43,0,*65
1487052339.39,9224,10.25,74324.3,-6.93,-33.09,-33.31,0,*6A
1487052340.62,9225,10.31,74328.0,-6.95,-33.15,-33.43,0,*65
1487052341.9,9226,10.25,74324.8,-6.93,-33.27,-33.43,0,*61
1487052343.19,9227,10.31,74328.0,-6.93,-33.09,-33.43,0,*6C
1487052344.46,9228,10.25,74324.5,-6.93,-33.27,-33.49,0,*65
1487052345.71,9229,10.31,74326.5,-6.95,-33.27,-33.49,0,*62
1487052346.94,9230,10.25,74324.3,-6.95,-33.15,-33.43,0,*61
1487052348.16,9231,10.31,74326.8,-6.95,-33.15,-33.49,0,*6A
1487052349.42,9232,10.31,74324.3,-6.93,-33.15,-33.43,0,*65
1487052350.67,9233,10.31,74328.3,-6.93,-33.15,-33.43,0,*64
1487052351.95,9234,10.31,74330.5,-6.93,-33.27,-33.43,0,*62
1487052353.23,9235,10.25,74324.3,-6.93,-33.27,-33.43,0,*63
1487052354.51,9236,10.31,74326.0,-6.93,-33.27,-33.49,0,*6A
1487052355.76,9237,10.25,74324.8,-6.93,-33.15,-33.49,0,*6A
1487052357.01,9238,10.31,74326.0,-6.95,-33.27,-33.43,0,*68
1487052358.28,9239,10.31,74328.5,-6.91,-33.03,-33.27,0,*69
1487052359.53,9240,10.25,74324.5,-6.93,-33.15,-33.43,0,*60
1487052360.81,9241,10.25,74322.8,-6.93,-33.27,-33.43,0,*60
1487052362.1,9242,10.25,74320.0,-6.91,-33.09,-33.43,0,*6D
1487052363.36,9243,10.25,74322.3,-6.91,-33.21,-33.43,0,*66
1487052364.59,9244,10.31,74328.0,-6.87,-33.15,-33.37,0,*62
1487052365.85,9245,10.31,74324.8,-6.91,-33.09,-33.37,0,*69
1487052367.09,9246,10.25,74322.8,-6.91,-33.21,-33.37,0,*60
1487052368.35,9247,10.25,74322.3,-6.91,-33.21,-33.43,0,*62
1487052369.59,9248,10.25,74320.0,-6.91,-33.21,-33.37,0,*6E
1487052370.82,9249,10.31,74324.3,-6.87,-33.15,-33.37,0,*6F
1487052372.05,9250,10.25,74320.8,-6.91,-33.21,-33.37,0,*67
1487052373.29,9251,10.31,74324.0,-6.87,-33.21,-33.37,0,*61
1487052374.52,9252,10.25,74322.5,-6.91,-33.21,-33.37,0,*65
1487052375.78,9253,10.25,74324.3,-6.87,-33.21,-33.31,0,*65
1487052377.02,9254,10.31,74330.0,-6.91,-33.21,-33.37,0,*63
1487052378.28,9255,10.25,74324.5,-6.87,-33.21,-33.31,0,*63
1487052379.54,9256,10.31,74324.5,-6.91,-33.27,-33.37,0,*67
1487052380.79,9257,10.31,74324.5,-6.87,-33.15,-33.49,0,*69
1487052382.07,9258,10.25,74326.3,-6.91,-33.27,-33.43,0,*6A
1487052383.31,9259,10.25,74320.8,-6.87,-33.21,-33.37,0,*69
1487052384.54,9260,10.31,74324.0,-6.87,-33.15,-33.37,0,*64
1487052385.79,9261,10.31,74324.8,-6.87,-33.21,-33.49,0,*6B
1487052387.05,9262,10.25,74324.3,-6.87,-33.21,-33.49,0,*68
1487052388.28,9263,10.25,74322.5,-6.87,-33.15,-33.37,0,*67
1487052389.51,9264,10.25,74324.0,-6.91,-33.21,-33.55,0,*64
1487052390.77,9265,10.25,74322.5,-6.87,-33.21,-33.49,0,*6F
1487052392.02,9266,10.31,74326.3,-6.87,-33.15,-33.49,0,*6B
1487052393.28,9267,10.25,74320.8,-6.87,-33.21,-33.49,0,*6D
1487052394.51,9268,10.31,74322.8,-6.87,-33.21,-33.55,0,*6F
1487052395.74,9269,10.31,74324.8,-6.87,-33.21,-33.37,0,*6A
1487052397.0,9270,10.25,74324.0,-6.87,-33.21,-33.31,0,*64
1487052398.25,9271,10.25,74324.3,-6.87,-33.15,-33.49,0,*6D
1487052399.54,9272,10.25,74324.5,-6.91,-33.27,-33.43,0,*62
1487052400.79,9273,10.31,74324.3,-6.87,-33.21,-33.49,0,*68
1487052402.05,9274,10.31,74324.5,-6.87,-33.21,-33.49,0,*6F
1487052403.27,9275,10.25,74326.0,-6.85,-33.15,-33.49,0,*6B
1487052404.47,9276,10.31,74328.0,-6.85,-33.21,-33.55,0,*62
1487052405.73,9277,10.25,74324.3,-6.87,-33.21,-33.49,0,*6C
1487052406.96,9278,10.31,74330.3,-6.85,-33.21,-33.49,0,*61
1487052408.18,9279,10.31,74328.3,-6.85,-33.15,-33.49,0,*67
1487052409.38,9280,10.31,74324.5,-6.85,-33.15,-33.37,0,*68
1487052410.6,9281,10.31,74328.5,-6.85,-33.15,-33.49,0,*60
1487052411.83,9282,10.31,74328.5,-6.85,-33.21,-33.49,0,*64
1487052413.05,9283,10.31,74328.8,-6.85,-33.15,-33.49,0,*62
1487052414.28,9284,10.25,74326.0,-6.85,-33.15,-33.43,0,*6F
1487052415.54,9285,10.31,74328.5,-6.87,-33.21,-33.49,0,*61
1487052416.74,9286,10.25,74322.8,-6.85,-33.21,-33.37,0,*69
1487052417.97,9287,10.25,74324.3,-6.85,-33.21,-33.49,0,*61
1487052419.17,9288,10.25,74324.3,-6.85,-33.21,-33.37,0,*67
1487052420.4,9289,10.25,74324.0,-6.85,-33.21,-33.49,0,*6F
1487052421.66,9290,10.31,74328.0,-6.81,-33.09,-33.49,0,*69
1487052422.91,9291,10.31,74326.0,-6.81,-33.27,-33.43,0,*6E
1487052424.17,9292,10.25,74324.3,-6.85,-33.09,-33.49,0,*6F
1487052425.39,9293,10.31,74330.5,-6.81,-33.27,-33.55,0,*6B
1487052426.65,9294,10.31,74326.5,-6.81,-33.27,-33.43,0,*6B
1487052427.9,9295,10.25,74320.3,-6.85,-33.31,-33.49,0,*63
1487052429.16,9296,10.31,74326.3,-6.81,-33.09,-33.49,0,*6F
1487052430.42,9297,10.31,74328.0,-6.85,-33.09,-33.43,0,*60
1487052431.62,9298,10.25,74324.5,-6.85,-33.15,-33.37,0,*61
1487052432.84,9299,10.25,74322.8,-6.81,-33.15,-33.31,0,*62
1487052434.08,9300,10.25,74322.5,-6.81,-33.15,-33.43,0,*66
1487052435.31,9301,10.25,74320.8,-6.81,-33.03,-33.27,0,*62
1487052436.53,9302,10.31,74326.0,-6.81,-33.15,-33.49,0,*6E
1487052437.76,9303,10.25,74324.3,-6.81,-33.15,-33.49,0,*6F
1487052439.01,9304,10.31,74328.5,-6.81,-33.27,-33.49,0,*69
1487052440.27,9305,10.25,74322.8,-6.81,-33.27,-33.49,0,*68
1487052441.52,9306,10.25,74320.8,-6.81,-33.31,-33.49,0,*6C
1487052442.76,9307,10.25,74326.0,-6.81,-33.21,-33.43,0,*66
1487052443.99,9308,10.25,74320.8,-6.81,-33.21,-33.43,0,*69
1487052445.22,9309,10.31,74326.0,-6.81,-33.15,-33.43,0,*6F
1487052446.45,9310,10.25,74322.5,-6.81,-33.09,-33.37,0,*69
1487052447.72,9311,10.31,74324.0,-6.81,-33.09,-33.27,0,*69
1487052448.98,9312,10.31,74324.8,-6.79,-33.21,-33.43,0,*65
1487052450.19,9313,10.31,74326.0,-6.81,-33.21,-33.37,0,*60
1487052451.45,9314,10.31,74326.8,-6.79,-33.09,-33.37,0,*6A
1487052452.68,9315,10.25,74326.0,-6.79,-33.21,-33.37,0,*61
1487052453.94,9316,10.25,74324.3,-6.79,-33.21,-33.49,0,*6B
1487052455.17,9317,10.31,74326.0,-6.81,-33.21,-33.43,0,*67
1487052456.41,9318,10.25,74324.5,-6.81,-33.21,-33.43,0,*68
1487052457.67,9319,10.25,74324.0,-6.79,-33.21,-33.43,0,*6E
1487052458.93,9320,10.31,74324.0,-6.79,-33.21,-33.43,0,*64
1487052460.18,9321,10.31,74328.3,-6.81,-33.27,-33.49,0,*6E
1487052461.47,9322,10.25,74326.0,-6.79,-33.27,-33.43,0,*60
1487052462.7,9323,10.31,74330.5,-6.81,-33.21,-33.43,0,*60
1487052463.98,9324,10.31,74326.8,-6.79,-33.27,-33.49,0,*6C
1487052465.21,9325,10.31,74330.5,-6.81,-33.21,-33.49,0,*6C
1487052466.49,9326,10.31,74330.5,-6.79,-33.27,-33.43,0,*64
1487052467.75,9327,10.31,74330.8,-6.79,-33.21,-33.49,0,*69
1487052469.03,9328,10.25,74326.3,-6.79,-33.27,-33.43,0,*6A
1487052470.27,9329,10.31,74328.3,-6.79,-33.21,-33.37,0,*6E
1487052471.53,9330,10.25,74326.5,-6.79,-33.09,-33.37,0,*6C
1487052472.79,9331,10.31,74326.3,-6.79,-33.21,-33.43,0,*64
1487052474.05,9332,10.25,74326.8,-6.79,-33.21,-33.49,0,*6D
1487052475.32,9333,10.31,74328.3,-6.79,-33.27,-33.61,0,*60
1487052476.58,9334,10.25,74324.3,-6.79,-33.37,-33.61,0,*66
1487052477.86,9335,10.25,74326.8,-6.79,-33.27,-33.49,0,*6C
1487052479.06,9336,10.25,74328.0,-6.77,-33.15,-33.37,0,*69
1487052480.32,9337,10.25,74328.0,-6.75,-33.21,-33.43,0,*6E
1487052481.56,9338,10.31,74330.0,-6.77,-33.21,-33.43,0,*63
1487052482.79,9339,10.25,74330.5,-6.77,-33.21,-33.43,0,*62
1487052484.03,9340,10.25,74326.5,-6.75,-33.21,-33.37,0,*6D
1487052485.26,9341,10.31,74330.0,-6.77,-33.31,-33.55,0,*6B
1487052486.46,9342,10.25,74330.5,-6.77,-33.37,-33.55,0,*6E
1487052487.69,9343,10.25,74328.3,-6.77,-33.31,-33.55,0,*69
1487052488.95,9344,10.31,74330.5,-6.77,-33.31,-33.43,0,*69
1487052490.18,9345,10.31,74330.3,-6.75,-33.21,-33.55,0,*6C
1487052491.44,9346,10.31,74332.0,-6.77,-33.31,-33.43,0,*6B
1487052492.73,9347,10.31,74332.0,-6.75,-33.31,-33.43,0,*68
1487052493.96,9348,10.31,74328.5,-6.77,-33.15,-33.43,0,*63
1487052495.22,9349,10.31,74330.3,-6.75,-33.21,-33.43,0,*67
1487052496.45,9350,10.31,74332.5,-6.77,-33.21,-33.43,0,*6D
1487052497.72,9351,10.31,74330.3,-6.75,-33.21,-33.43,0,*6E
1487052498.98,9352,10.25,74330.8,-6.75,-33.21,-33.43,0,*6D
1487052500.21,9353,10.31,74328.8,-6.75,-33.15,-33.37,0,*68
1487052501.47,9354,10.31,74332.8,-6.75,-33.15,-33.43,0,*6C
1487052502.73,9355,10.25,74330.0,-6.75,-33.21,-33.43,0,*6A
1487052503.96,9356,10.25,74328.8,-6.75,-33.15,-33.37,0,*6D
1487052505.22,9357,10.31,74330.3,-6.75,-33.15,-33.43,0,*6F